Theta_e
336 337 336 337 338 336 331 332 333 335 336 338 338 339 339 339 338 338 337 336 335 334 333 334 335 336 332 331 331 330 329 328 323 316 315 316 324 327 328 325 322 324 323
339 336 339 336 337 332 332 332 335 338 339 339 339 338 337 336 337 338 337 336 336 336 336 336 337 336 336 335 333 333 332 331 329 328 320 322 326 326 329 327 322 317 319
341 335 340 337 336 332 332 335 339 338 336 333 332 331 329 327 327 329 330 329 327 325 324 327 329 331 333 335 336 336 335 335 333 331 329 325 326 327 325 331 322 321 321
340 335 337 338 333 333 336 340 337 333 330 325 323 321 318 316 315 315 314 312 312 311 312 312 314 316 319 323 326 329 335 336 336 335 333 329 332 333 333 334 332 325 319
338 334 337 336 334 338 339 337 334 330 321 316 315 312 310 309 308 308 308 308 308 308 309 309 309 309 309 309 311 314 318 328 333 334 335 333 333 332 330 332 333 333 331
334 335 336 334 334 338 336 334 330 321 315 311 309 308 308 308 308 309 309 309 309 309 309 309 309 309 309 309 309 309 309 311 314 322 330 333 333 331 329 332 330 332 334
334 335 335 334 338 336 334 332 324 314 310 308 308 308 308 309 309 309 308 308 308 308 308 308 308 308 308 308 308 309 309 309 309 310 315 326 331 332 329 332 332 330 332
337 336 337 338 338 335 334 328 315 310 308 308 308 308 309 309 308 308 308 308 308 308 308 308 307 307 307 307 307 308 308 309 309 309 309 312 323 329 329 331 333 332 333
337 337 339 339 337 335 332 318 310 308 308 308 308 308 308 308 308 309 309 308 308 308 308 308 307 307 306 306 306 307 308 311 312 312 310 311 315 323 327 329 331 331 331
338 339 339 338 337 334 324 311 309 308 308 308 308 308 308 308 309 309 309 308 308 308 307 307 306 305 305 305 306 307 309 312 314 316 318 322 325 325 328 326 330 331 331
338 338 339 338 336 330 313 310 308 308 308 308 308 308 308 309 309 309 309 308 308 307 306 305 305 304 304 305 306 307 308 309 312 315 317 319 324 327 326 328 327 325 324
338 338 339 337 331 318 310 309 308 308 308 308 308 308 308 308 308 309 308 307 307 306 305 305 305 304 304 304 305 307 307 309 310 312 315 317 318 322 324 325 325 324 322
336 338 337 333 322 311 309 309 309 309 308 308 307 308 308 308 309 308 308 307 306 305 305 305 304 303 303 303 304 306 308 310 312 312 313 313 313 316 318 319 319 319 320
337 338 334 327 313 310 309 309 309 308 308 307 307 308 308 308 309 308 307 306 305 305 305 304 304 304 303 303 304 307 309 312 314 313 314 314 314 313 317 318 320 320 321
336 334 330 320 310 309 309 309 308 308 308 307 307 308 308 308 309 307 306 305 305 305 305 305 304 304 303 303 304 307 309 311 314 314 311 311 309 312 316 317 317 318 319
334 331 326 314 310 309 308 308 308 308 308 308 308 308 308 308 308 306 305 305 305 305 305 306 305 304 303 304 305 308 310 313 314 314 312 309 307 310 312 313 313 313 315
333 328 320 311 309 308 308 308 308 308 308 308 308 308 308 308 307 305 305 305 305 306 306 306 306 305 304 304 306 309 310 312 312 313 309 306 304 304 306 308 309 310 310
332 329 315 310 309 308 308 308 308 309 309 308 308 308 308 308 306 305 305 305 306 306 306 306 306 306 305 304 305 309 310 309 310 310 307 305 304 303 302 301 301 300 303
333 328 314 310 308 308 308 308 309 309 308 308 307 308 307 306 305 305 305 306 306 306 306 306 307 306 306 305 304 306 309 310 311 311 309 306 305 305 304 302 301 300 298
331 324 311 309 308 308 308 309 309 309 308 307 308 307 306 305 305 306 306 306 306 306 306 306 306 306 306 306 305 305 306 309 311 311 310 307 306 305 305 304 302 300 299
324 317 311 309 309 309 309 309 309 309 309 308 307 306 305 306 306 307 307 307 307 306 306 306 306 306 306 306 306 305 306 308 310 311 308 307 307 305 305 304 302 301 300
325 315 311 310 309 309 309 309 310 310 309 308 306 306 306 306 307 307 307 307 307 307 307 306 306 306 306 305 305 305 304 306 308 309 307 307 308 305 305 304 302 300 300
321 318 313 311 310 309 309 309 310 309 309 307 306 306 306 307 306 306 307 307 307 307 307 307 306 306 305 305 304 304 304 303 304 304 306 307 307 306 304 304 302 300 300
320 319 315 312 311 310 310 310 310 310 309 307 307 306 306 307 306 306 307 307 307 307 307 307 307 306 306 305 304 303 303 303 303 303 303 304 307 305 304 303 301 301 300
321 319 317 313 312 311 311 310 310 310 309 307 307 307 306 306 305 306 306 306 306 306 306 307 307 307 307 306 305 304 304 303 302 302 302 303 303 302 301 301 300 300 299
320 319 318 314 313 312 312 311 310 310 309 307 307 308 306 306 305 306 305 305 305 304 304 305 306 306 306 307 306 305 304 303 302 301 301 301 301 302 302 301 300 300 299
Wind_Speed
20 18 16 15 14 11 8 8 8 7 8 8 8 7 7 7 7 6 6 6 5 5 5 5 6 6 5 5 5 5 5 5 5 4 4 3 3 5 5 7 9 7 7
22 18 17 14 14 10 9 8 7 7 7 7 6 5 4 4 4 4 2 1 1 2 2 2 3 4 5 6 6 6 6 5 4 4 4 2 3 5 4 7 9 8 6
20 20 18 15 12 10 9 8 8 6 4 2 0 1 1 2 2 3 3 4 5 5 5 6 6 7 5 3 3 4 6 6 5 4 4 3 3 4 4 7 8 9 8
19 20 19 16 12 11 10 9 6 3 1 1 1 1 2 2 3 3 4 5 6 6 6 7 8 8 8 8 9 9 6 6 6 4 4 4 4 4 5 7 9 9 8
21 21 19 16 14 12 11 7 5 2 1 0 1 2 2 2 3 3 4 5 5 6 7 8 8 9 10 10 10 11 11 12 10 7 6 6 7 5 5 9 9 10 9
22 21 19 16 13 11 8 5 3 1 0 1 2 2 3 3 3 4 4 4 5 6 7 8 8 9 10 10 11 11 12 12 13 13 12 9 8 6 5 7 9 10 11
22 20 17 14 13 11 8 5 3 2 1 1 2 2 3 3 4 5 5 5 6 7 7 8 8 8 9 9 9 9 10 12 13 13 12 12 10 10 10 9 11 12 13
16 20 18 16 13 10 7 5 3 2 1 0 1 2 3 3 4 5 5 6 7 8 8 8 9 9 9 9 9 8 9 9 10 10 10 10 11 12 12 11 9 11 11
18 17 17 15 12 9 7 5 4 2 1 1 2 2 3 5 5 6 6 7 8 9 10 11 11 10 11 10 10 9 8 7 7 6 4 5 7 11 11 9 8 11 12
18 16 16 14 11 9 7 5 4 3 1 1 2 3 3 4 5 6 7 9 10 11 11 12 12 12 12 11 9 9 7 6 5 3 2 1 4 5 7 11 6 7 9
21 18 16 14 12 10 7 5 4 2 1 1 2 3 4 4 6 7 8 9 10 11 12 13 13 13 12 10 8 6 6 5 4 4 4 3 4 6 8 10 11 13 15
23 20 17 14 12 9 7 5 4 2 0 1 2 3 4 5 6 8 9 10 11 11 12 12 12 12 10 9 8 6 6 5 5 4 5 5 6 5 5 9 11 11 13
23 21 18 15 12 9 7 5 4 2 1 1 2 3 4 5 7 7 8 9 10 11 10 10 10 10 9 8 7 6 5 6 6 6 5 6 8 8 6 9 12 8 6
23 21 19 16 12 10 8 6 4 3 0 1 1 2 4 5 6 6 8 10 10 10 10 10 10 10 10 8 6 6 6 6 7 8 8 8 9 9 4 2 4 4 2
23 21 18 15 12 10 8 5 3 2 1 1 1 2 3 4 5 7 9 9 9 10 10 11 11 11 10 8 7 6 5 5 6 9 11 11 13 10 3 1 1 3 4
21 20 17 14 12 10 8 6 4 3 1 1 1 1 2 3 6 7 8 8 9 9 10 11 12 12 11 9 8 7 7 5 7 9 12 14 14 10 9 6 4 3 2
20 18 16 15 13 11 9 7 6 4 2 2 2 2 1 3 6 7 7 7 7 9 10 11 11 11 10 8 7 7 6 5 7 9 12 13 12 10 8 9 9 9 9
20 18 17 15 13 11 9 7 5 4 4 3 2 1 2 4 5 6 6 6 7 8 8 9 9 10 10 8 6 5 5 5 6 9 10 12 11 11 11 10 11 11 10
19 19 18 16 14 12 10 9 7 6 4 3 3 2 3 4 4 4 5 5 6 6 8 9 9 9 9 9 8 6 4 4 5 8 10 10 11 11 12 14 14 13 12
20 20 18 16 15 13 11 10 7 5 5 4 4 3 3 3 3 4 5 6 6 7 8 9 10 10 10 10 8 7 5 6 6 8 9 8 9 12 12 15 16 15 14
22 22 19 18 15 13 12 10 8 6 5 5 5 4 3 3 3 4 6 7 8 8 9 9 9 10 10 9 8 8 6 7 7 8 10 8 9 11 12 15 17 15 15
21 22 20 18 16 13 12 10 9 7 7 6 5 5 3 3 4 6 7 8 9 9 10 10 10 11 11 10 9 8 4 6 7 10 13 9 9 11 12 13 17 16 15
23 22 19 17 16 15 13 12 11 9 8 7 6 5 4 4 5 6 8 9 10 10 11 11 12 12 11 11 10 6 5 3 12 5 7 10 11 12 13 13 16 15 14
21 19 18 18 17 16 15 14 13 10 8 8 7 6 6 5 6 8 10 11 12 13 13 12 13 13 13 12 11 9 9 11 5 7 6 10 13 15 14 16 17 12 13
18 20 19 18 19 17 16 15 14 12 10 10 8 7 7 7 8 9 12 14 15 16 15 15 14 15 15 14 13 13 12 12 12 12 17 11 13 16 18 19 15 14 14
19 21 20 20 20 19 18 16 15 14 12 11 10 8 8 8 10 13 15 17 18 17 17 17 16 15 15 16 15 15 14 14 14 13 16 20 22 19 17 18 16 17 13
Wind_Direction
163 169 163 160 155 152 149 134 120 107 91 81 75 74 77 73 70 68 62 59 51 36 26 25 16 12 14 16 17 17 18 19 18 11 360 337 330 340 339 357 357 353 356
155 163 161 164 161 156 149 137 122 101 99 106 121 121 100 83 96 97 110 90 50 6 21 31 12 355 344 345 348 350 348 353 355 350 348 359 355 342 348 356 356 356 345
160 164 163 164 164 158 151 137 143 138 132 131 191 289 296 295 288 290 294 298 298 294 290 285 279 275 276 290 312 317 316 316 318 317 316 291 327 347 358 358 354 357 343
165 168 164 166 167 163 155 156 153 149 155 258 292 315 323 321 317 309 308 312 313 308 306 299 291 287 284 276 267 263 267 278 285 291 295 277 296 326 330 352 1 357 341
168 168 167 170 167 167 164 166 167 172 209 342 335 331 329 332 333 335 335 332 326 320 315 308 305 301 295 291 284 277 270 267 273 274 275 272 282 311 326 321 332 336 337
162 166 172 177 169 165 167 174 192 201 213 338 329 334 344 353 1 4 350 342 338 335 328 325 321 317 310 300 292 287 282 277 272 266 260 258 264 254 269 276 284 296 308
165 169 172 170 166 170 174 187 202 199 260 310 342 4 11 17 18 13 0 355 352 347 343 338 333 327 323 320 314 306 297 286 276 270 264 256 252 252 271 282 269 289 297
177 171 171 169 172 176 183 193 205 222 237 320 28 36 23 25 18 8 0 359 357 349 344 336 331 328 322 322 318 317 307 307 300 288 271 260 250 251 260 274 272 282 295
172 179 175 175 175 182 193 205 217 221 177 88 49 30 16 13 5 5 2 359 0 349 341 336 334 327 323 323 320 317 316 324 334 335 306 277 257 252 256 272 281 291 296
174 180 182 181 182 189 200 202 206 197 172 86 43 24 26 11 7 8 1 2 357 349 343 341 337 331 331 332 327 318 316 319 321 330 324 180 228 252 265 260 273 282 289
179 187 186 188 190 195 200 203 202 199 162 59 46 32 34 19 14 8 3 1 355 350 346 343 341 342 340 339 343 331 324 314 307 294 279 262 263 268 270 274 282 294 299
184 187 188 191 193 195 197 196 186 178 109 54 42 32 22 16 14 6 4 1 355 352 350 347 344 346 347 346 346 343 331 330 328 313 292 283 279 295 309 294 311 311 309
188 192 190 193 193 191 193 192 182 182 164 17 27 19 18 16 10 2 4 359 356 356 357 354 355 354 355 353 351 343 349 352 4 2 347 314 298 297 319 300 302 315 339
191 190 192 191 193 192 193 192 189 181 154 26 9 20 21 13 6 357 2 359 0 3 6 5 7 9 3 359 1 358 5 5 3 2 351 339 331 324 20 320 359 305 318
191 191 192 193 193 196 195 194 193 203 214 316 7 14 14 5 1 1 2 3 5 11 12 15 16 15 8 6 14 5 14 1 350 353 4 6 4 11 105 184 243 329 324
196 195 196 196 196 197 198 194 204 220 233 268 303 331 10 7 1 358 5 7 11 15 18 19 19 15 11 7 16 30 38 26 356 353 355 354 3 12 8 11 5 317 14
199 200 200 199 198 198 199 201 209 208 240 282 292 291 349 358 354 358 8 12 16 18 20 18 18 17 4 1 1 15 28 17 350 340 345 358 6 3 357 349 340 332 322
203 203 203 201 200 200 201 207 214 219 245 259 249 246 316 344 353 1 8 8 11 13 10 14 16 14 5 360 349 354 10 14 358 347 1 10 24 26 27 19 359 347 331
207 211 207 204 203 202 205 209 211 222 242 246 234 248 307 333 348 357 358 356 360 359 357 360 5 8 4 356 342 325 325 334 334 344 352 9 21 24 26 22 14 7 359
211 211 209 208 206 204 210 215 221 239 249 243 240 259 296 316 331 338 344 346 349 349 349 348 351 354 354 352 345 326 292 293 303 318 327 345 2 10 10 10 9 6 3
208 209 209 212 212 213 218 220 224 240 249 244 252 265 286 300 312 327 337 341 344 344 340 338 339 338 339 341 337 320 290 273 276 292 314 320 341 354 355 357 358 358 0
214 217 210 214 218 218 219 225 234 247 251 256 258 261 267 287 316 333 336 338 335 332 329 327 327 325 328 331 333 326 299 283 266 289 296 295 313 337 338 342 345 347 352
214 216 219 220 223 223 225 230 237 245 249 254 250 253 264 289 313 328 330 327 323 319 315 314 313 312 316 320 325 325 318 314 319 306 282 292 295 316 320 324 332 332 338
217 220 225 226 228 228 231 235 241 249 253 251 248 262 275 284 303 314 314 314 312 308 308 309 307 306 308 308 310 308 297 298 313 310 302 301 294 304 310 311 315 315 322
225 229 230 230 231 233 238 239 243 249 247 248 252 268 281 286 292 302 306 308 307 302 302 303 302 301 297 297 297 295 292 292 287 277 292 294 289 299 304 306 306 304 308
233 234 234 236 237 238 240 242 245 247 247 246 252 274 288 287 293 298 303 307 307 304 299 295 293 294 295 291 291 291 290 288 286 284 286 294 297 298 298 300 301 301 298